This is the latest recevied weather packets stored in our database for station/object KO5MO-4. If no packets are shown the sender has not sent any weather packets the latest 10 day(s).
| Time | Temp. | Humidity | Pressure | Rain* | Wind** | Luminosity | Snow |
|---|---|---|---|---|---|---|---|
| 1777323666 | 30.56° C | 16% | 1009.6 hPa | 0 mm | - | - | - |
| 1777322167 | 29.44° C | 16% | 1009.7 hPa | 0 mm | - | - | - |
| 1777321867 | 29.44° C | 16% | 1009.7 hPa | 0 mm | - | - | - |
| 1777321567 | 30° C | 16% | 1009.8 hPa | 0 mm | - | - | - |
| 1777321266 | 30° C | 16% | 1009.9 hPa | 0 mm | - | - | - |
| 1777320967 | 29.44° C | 16% | 1010 hPa | 0 mm | - | - | - |
| 1777320367 | 28.89° C | 16% | 1010 hPa | 0 mm | - | - | - |
| 1777318866 | 30° C | 16% | 1010.2 hPa | 0 mm | - | - | - |
| 1777318566 | 29.44° C | 17% | 1010.4 hPa | 0 mm | - | - | - |
| 1777318267 | 27.78° C | 17% | 1010.4 hPa | 0 mm | - | - | - |
| 1777317966 | 28.33° C | 17% | 1010.5 hPa | 0 mm | - | - | - |
| 1777317666 | 28.89° C | 17% | 1010.6 hPa | 0 mm | - | - | - |
| 1777317367 | 28.33° C | 17% | 1010.6 hPa | 0 mm | - | - | - |
| 1777317067 | 28.89° C | 17% | 1010.6 hPa | 0 mm | - | - | - |
| 1777316766 | 28.33° C | 18% | 1010.6 hPa | 0 mm | - | - | - |
| 1777316167 | 28.33° C | 17% | 1010.9 hPa | 0 mm | - | - | - |
| 1777315866 | 28.33° C | 17% | 1010.9 hPa | 0 mm | - | - | - |
| 1777314366 | 27.22° C | 18% | 1011.3 hPa | 0 mm | - | - | - |
| 1777313767 | 27.78° C | 18% | 1011.3 hPa | 0 mm | - | - | - |
| 1777312267 | 27.78° C | 19% | 1011.5 hPa | 0 mm | - | - | - |
| 1777311367 | 26.67° C | 19% | 1011.5 hPa | 0 mm | - | - | - |
| 1777310766 | 27.22° C | 19% | 1011.5 hPa | 0 mm | - | - | - |
| 1777310466 | 27.22° C | 20% | 1011.5 hPa | 0 mm | - | - | - |
| 1777309566 | 25.56° C | 20% | 1011.6 hPa | 0 mm | - | - | - |
| 1777309266 | 26.67° C | 20% | 1011.6 hPa | 0 mm | - | - | - |
* Rain latest hour (hover to see other rain measurements)
** Current wind speed in m/s (hover to see current wind gust speed)